Crete, IL (60417)

7:05 PM CDT on March 23, 2017 (GMT -0500)
Crete - Central | | Change Station

Elev 741 ft 41.44 °N, 87.62 °W | Updated 21 seconds ago

Rain
Rain
47.1 °F
Feels Like 47 °F
N
1.3
Wind Variable Wind from SSE
Gusts 2.5 mph

Today
High -- | Low -- °F
--% Chance of Precip.
Yesterday
High -- | Low -- °F
Precip. -- in
Pressure 30.11 in
Visibility 10.0 miles
Clouds Overcast 3400 ft
Windchill 47 °F
Dew Point 34 °F
Humidity 59%
Rainfall 0.00 in
Snow Depth Not available.
6:48 AM 7:06 PM
Waning Crescent, 19% visible
METAR KIGQ 232355Z AUTO 17011KT 10SM RA OVC034 08/01 A3011 RMK AO2 T00840010 10095 20070
Pressure 30.11 in
Visibility 10.0 miles
Clouds Overcast 3400 ft
Windchill 47 °F
Dew Point 34 °F
Humidity 59%
Rainfall 0.00 in
Snow Depth Not available.
6:48 AM 7:06 PM
Waning Crescent, 19% visible
METAR KIGQ 232355Z AUTO 17011KT 10SM RA OVC034 08/01 A3011 RMK AO2 T00840010 10095 20070

Get Severe Weather Alerts

Thanks for signing up!

Be on the lookout for a verification email in your inbox.

You'll start receiving the daily forecast at 8 AM.

×

10-Day Weather Forecast

Almanac

Astronomy

Mar. 23, 2017 Rise Set
Actual Time
Civil Twilight
Nautical Twilight
Astronomical Twilight
Moon
Length of Visible Light
Length of Day
Tomorrow will be .
, % of the Moon is Illuminated

Today's Extremes

State Highs State Lows

Community

WunderPhotos

Upload Photos

1,962,540 photos uploaded!

WunderBlog® & News

Nearby

Air Quality

  Air Quality AQ Index Pollutant
Not available.

Snow Depth

Station Depth Elevation

Earthquake Activity

City Distance Mag. Time & Date
Minimum magnitude displayed is 2.5.

Earthquake Activity

City Distance Mag. Time & Date
Minimum magnitude displayed is 2.5.

Coastal Water Temperatures

Place Temperature

Stations

Nearby Weather Stations

Station Location Temp. Windchill Dew Point Humidity Wind Precip. Elev Updated Type
                   

Watches & Warnings

There are currently no watches in effect.